Overview Statistics Trail Chart Weather Telemetry Raw packets
 

This is the latest recevied weather packets stored in our database for station/object W7DG. If no packets are shown the sender has not sent any weather packets the latest 10 day(s).

<< 2 3 4 5 6 7 8 >>
Time Temp. Humidity Pressure Rain* Wind** Luminosity Snow
1788581890 11.67° C 87% 1016.7 hPa 0.25 mm - - -
1788580990 11.67° C 86% 1016.7 hPa 0.25 mm - - -
1788580090 12.22° C 83% 1016.5 hPa 0.25 mm - - -
1788579190 12.22° C 83% 1016.6 hPa 0.25 mm - - -
1788578290 12.22° C 85% 1016.4 hPa 0 mm - - -
1788577389 12.78° C 82% 1016.4 hPa 0 mm - - -
1788576490 12.78° C 81% 1016.2 hPa 0 mm - - -
1788575589 12.78° C 82% 1016.2 hPa 0 mm - - -
1788529689 10° C 92% 1012.8 hPa 0.25 mm - - -
1788529165 9.44° C 92% 1012.8 hPa 0.25 mm - - -
1788528789 10° C 92% 1012.6 hPa 0.25 mm - - -
1788528251 10° C 92% 1012.5 hPa 0.25 mm - - -
1788527889 10° C 91% 1012.5 hPa 0.25 mm - - -
1788527351 10° C 91% 1012.4 hPa 0.25 mm - - -
1788526989 9.44° C 91% 1012.4 hPa 0.25 mm - - -
1788526450 9.44° C 91% 1012.4 hPa 0 mm - - -
1788526089 9.44° C 91% 1012.3 hPa 0 mm - - -
1788525550 10° C 91% 1012.4 hPa 0 mm - - -
1788525189 10° C 91% 1012.4 hPa 0 mm - - -
1788524650 10° C 90% 1012.3 hPa 0 mm - - -
1788524289 10.56° C 90% 1012.3 hPa 0 mm - - -
1788523751 10.56° C 89% 1012.2 hPa 0 mm - - -
1788523389 10.56° C 89% 1012.2 hPa 0 mm - - -
1788522850 10.56° C 88% 1012 hPa 0.25 mm - - -
1788522489 11.11° C 88% 1011.9 hPa 0.25 mm - - -

* Rain latest hour (hover to see other rain measurements)
** Current wind speed in m/s (hover to see current wind gust speed)